Orbital Elements at Epoch 2459200.5 (2020-Dec-17.0) TDB
Reference: JPL 21 (heliocentric ecliptic J2000)
Element | Value | Uncertainty (1-sigma) | Units |
e | .1138273768897266 | 3.7003e-08 | |
a | 2.266943248293448 | 9.5309e-09 | au |
q | 2.008903044782328 | 8.4057e-08 | au |
i | 3.405628564320914 | 3.9013e-06 | deg |
node | 298.354094662745 | 7.921e-05 | deg |
peri | 142.4853073687691 | 8.4827e-05 | deg |
M | 91.35510728024308 | 2.5996e-05 | deg |
tp | 2458884.134053581874 (2020-Feb-04.63405358) | 9.0755e-05 | TDB |
period | 1246.6926491712 3.41 | 7.8622e-06 2.153e-08 | d yr |
n | .2887640351768557 | 1.8211e-09 | deg/d |
Q | 2.524983451804567 | 1.0616e-08 | au |
|
| | Orbit Determination Parameters
Additional Information
|